QPF
0.00 0.00 0.01 0.01 0.01 0.00 0.00 0.00 0.01 0.01 0.01 0.01 0.00 0.01 0.02 0.02 0.01 0.01 0.01 0.01 0.02 0.03 0.05 0.02 0.03 0.02 0.02 0.04 0.03 0.02 0.01 0.01 0.01 0.02 0.02 0.03 0.03 0.03 0.02 0.02 0.02 0.03 0.03 0.03
0.00 0.01 0.02 0.01 0.00 0.00 0.00 0.00 0.00 0.01 0.01 0.00 0.01 0.03 0.04 0.02 0.02 0.02 0.03 0.04 0.03 0.02 0.03 0.04 0.04 0.02 0.02 0.02 0.03 0.03 0.03 0.02 0.02 0.03 0.04 0.03 0.03 0.03 0.02 0.02 0.03 0.03 0.02 0.02
0.01 0.00 0.01 0.01 0.00 0.00 0.00 0.00 0.00 0.01 0.01 0.00 0.01 0.03 0.03 0.02 0.02 0.01 0.02 0.04 0.04 0.04 0.04 0.05 0.04 0.04 0.03 0.03 0.03 0.03 0.04 0.04 0.03 0.04 0.04 0.03 0.03 0.03 0.03 0.02 0.02 0.02 0.03 0.02
0.01 0.01 0.02 0.02 0.01 0.00 0.00 0.00 0.00 0.00 0.00 0.00 0.01 0.02 0.03 0.02 0.01 0.01 0.01 0.01 0.02 0.03 0.03 0.02 0.02 0.01 0.01 0.02 0.02 0.04 0.06 0.06 0.05 0.05 0.05 0.06 0.05 0.04 0.03 0.02 0.01 0.02 0.02 0.03
0.01 0.02 0.03 0.03 0.01 0.00 0.01 0.01 0.01 0.01 0.01 0.01 0.01 0.01 0.03 0.02 0.00 0.00 0.00 0.01 0.01 0.01 0.00 0.00 0.01 0.01 0.01 0.02 0.03 0.03 0.04 0.03 0.03 0.04 0.04 0.05 0.04 0.04 0.04 0.03 0.02 0.03 0.03 0.03
0.01 0.02 0.03 0.02 0.00 0.00 0.01 0.02 0.01 0.00 0.00 0.02 0.03 0.05 0.06 0.03 0.01 0.00 0.00 0.00 0.00 0.00 0.00 0.00 0.01 0.01 0.02 0.03 0.03 0.02 0.02 0.02 0.02 0.03 0.04 0.04 0.04 0.05 0.04 0.04 0.03 0.03 0.04 0.04
0.01 0.02 0.03 0.01 0.00 0.00 0.02 0.02 0.00 0.01 0.01 0.01 0.01 0.03 0.04 0.01 0.01 0.00 0.00 0.00 0.00 0.00 0.00 0.00 0.01 0.01 0.02 0.02 0.01 0.01 0.01 0.01 0.02 0.03 0.03 0.04 0.05 0.05 0.05 0.04 0.03 0.03 0.04 0.03
0.03 0.02 0.02 0.00 0.00 0.00 0.01 0.00 0.01 0.01 0.01 0.01 0.02 0.02 0.02 0.01 0.01 0.01 0.00 0.00 0.00 0.00 0.00 0.00 0.00 0.00 0.00 0.01 0.01 0.01 0.01 0.01 0.02 0.04 0.03 0.03 0.04 0.05 0.04 0.03 0.04 0.04 0.04 0.03
0.02 0.02 0.01 0.00 0.00 0.01 0.02 0.01 0.01 0.03 0.02 0.02 0.03 0.02 0.01 0.01 0.01 0.01 0.01 0.01 0.01 0.00 0.00 0.00 0.00 0.00 0.01 0.01 0.01 0.02 0.02 0.03 0.05 0.05 0.03 0.03 0.04 0.04 0.04 0.04 0.04 0.05 0.04 0.03
0.02 0.01 0.00 0.00 0.00 0.01 0.03 0.01 0.01 0.02 0.03 0.01 0.02 0.01 0.01 0.01 0.01 0.01 0.01 0.03 0.02 0.01 0.01 0.01 0.00 0.00 0.01 0.01 0.02 0.03 0.04 0.03 0.03 0.04 0.03 0.03 0.03 0.03 0.03 0.03 0.03 0.03 0.02 0.02
0.02 0.02 0.00 0.00 0.00 0.01 0.02 0.03 0.01 0.01 0.02 0.01 0.01 0.01 0.02 0.03 0.02 0.01 0.01 0.01 0.01 0.01 0.01 0.01 0.01 0.01 0.01 0.01 0.02 0.03 0.04 0.03 0.02 0.02 0.03 0.03 0.02 0.02 0.02 0.02 0.02 0.02 0.02 0.02
0.03 0.03 0.02 0.02 0.03 0.03 0.01 0.04 0.04 0.01 0.00 0.01 0.01 0.01 0.01 0.01 0.01 0.01 0.01 0.02 0.02 0.02 0.02 0.01 0.01 0.01 0.01 0.02 0.03 0.03 0.03 0.02 0.02 0.02 0.02 0.03 0.03 0.01 0.02 0.02 0.02 0.02 0.01 0.01
0.01 0.01 0.01 0.02 0.02 0.01 0.00 0.01 0.02 0.01 0.00 0.02 0.02 0.01 0.01 0.01 0.01 0.02 0.02 0.02 0.02 0.02 0.02 0.01 0.01 0.01 0.01 0.01 0.02 0.02 0.03 0.02 0.02 0.01 0.02 0.02 0.02 0.01 0.03 0.06 0.06 0.02 0.01 0.01
0.00 0.00 0.01 0.01 0.00 0.00 0.00 0.00 0.00 0.01 0.01 0.01 0.01 0.01 0.02 0.02 0.03 0.03 0.03 0.03 0.04 0.03 0.02 0.01 0.01 0.01 0.01 0.01 0.01 0.02 0.03 0.02 0.02 0.02 0.02 0.02 0.02 0.03 0.05 0.06 0.05 0.02 0.02 0.02
0.00 0.00 0.00 0.01 0.01 0.00 0.00 0.00 0.01 0.02 0.02 0.02 0.02 0.02 0.02 0.03 0.03 0.04 0.04 0.04 0.03 0.03 0.02 0.01 0.01 0.01 0.01 0.01 0.01 0.02 0.02 0.02 0.01 0.01 0.01 0.01 0.02 0.02 0.02 0.01 0.02 0.02 0.02 0.02
0.00 0.00 0.00 0.00 0.00 0.00 0.00 0.01 0.02 0.04 0.03 0.03 0.02 0.02 0.02 0.03 0.03 0.04 0.03 0.02 0.02 0.02 0.01 0.01 0.01 0.01 0.01 0.01 0.01 0.01 0.01 0.01 0.01 0.01 0.01 0.01 0.01 0.02 0.01 0.01 0.02 0.02 0.01 0.01
0.00 0.00 0.00 0.00 0.01 0.01 0.01 0.02 0.03 0.04 0.04 0.04 0.05 0.03 0.02 0.03 0.03 0.03 0.02 0.01 0.01 0.01 0.01 0.01 0.01 0.01 0.02 0.02 0.01 0.01 0.01 0.01 0.01 0.01 0.01 0.02 0.02 0.02 0.01 0.01 0.02 0.02 0.02 0.02
0.00 0.00 0.00 0.00 0.01 0.01 0.01 0.02 0.02 0.03 0.02 0.02 0.02 0.02 0.02 0.02 0.02 0.01 0.01 0.01 0.01 0.01 0.01 0.01 0.01 0.01 0.02 0.02 0.01 0.01 0.01 0.01 0.01 0.01 0.02 0.02 0.02 0.03 0.02 0.02 0.02 0.02 0.02 0.02
0.01 0.01 0.01 0.01 0.01 0.02 0.02 0.02 0.03 0.02 0.02 0.01 0.01 0.01 0.01 0.01 0.01 0.01 0.01 0.01 0.01 0.01 0.01 0.01 0.01 0.02 0.02 0.02 0.02 0.03 0.01 0.02 0.03 0.04 0.03 0.02 0.02 0.02 0.02 0.02 0.02 0.02 0.01 0.01
0.01 0.01 0.01 0.01 0.01 0.01 0.01 0.01 0.02 0.02 0.02 0.01 0.01 0.01 0.01 0.01 0.01 0.01 0.01 0.01 0.01 0.01 0.01 0.01 0.01 0.01 0.01 0.02 0.02 0.02 0.02 0.02 0.03 0.06 0.07 0.05 0.03 0.02 0.02 0.02 0.01 0.02 0.02 0.01
0.01 0.02 0.01 0.01 0.01 0.00 0.01 0.01 0.01 0.02 0.02 0.02 0.03 0.03 0.03 0.02 0.02 0.02 0.02 0.02 0.02 0.02 0.02 0.02 0.01 0.02 0.02 0.03 0.03 0.02 0.02 0.02 0.02 0.03 0.03 0.04 0.03 0.01 0.01 0.01 0.02 0.02 0.03 0.02
0.01 0.01 0.01 0.01 0.01 0.01 0.01 0.01 0.01 0.01 0.01 0.02 0.02 0.02 0.02 0.03 0.03 0.03 0.03 0.03 0.03 0.04 0.03 0.02 0.01 0.02 0.03 0.03 0.03 0.01 0.01 0.01 0.01 0.01 0.01 0.02 0.01 0.01 0.01 0.02 0.02 0.02 0.02 0.03
0.00 0.00 0.00 0.00 0.00 0.00 0.00 0.00 0.00 0.00 0.01 0.01 0.01 0.01 0.02 0.02 0.02 0.02 0.04 0.04 0.04 0.04 0.03 0.02 0.02 0.02 0.02 0.02 0.02 0.01 0.01 0.02 0.03 0.02 0.01 0.01 0.01 0.02 0.02 0.02 0.01 0.01 0.02 0.02
0.01 0.00 0.00 0.00 0.00 0.00 0.00 0.00 0.00 0.00 0.01 0.01 0.01 0.01 0.02 0.03 0.02 0.02 0.04 0.04 0.03 0.03 0.03 0.02 0.02 0.02 0.02 0.01 0.01 0.01 0.01 0.02 0.03 0.03 0.02 0.01 0.01 0.01 0.01 0.01 0.01 0.02 0.02 0.02
0.01 0.01 0.01 0.01 0.01 0.00 0.00 0.01 0.01 0.01 0.01 0.01 0.01 0.01 0.02 0.02 0.02 0.02 0.03 0.03 0.03 0.02 0.01 0.02 0.02 0.02 0.01 0.01 0.00 0.01 0.01 0.02 0.02 0.02 0.02 0.01 0.01 0.01 0.01 0.01 0.01 0.02 0.02 0.02
0.02 0.02 0.02 0.02 0.01 0.01 0.01 0.01 0.01 0.01 0.01 0.02 0.02 0.02 0.02 0.01 0.01 0.02 0.02 0.02 0.02 0.02 0.01 0.01 0.02 0.02 0.01 0.01 0.01 0.01 0.01 0.02 0.02 0.02 0.02 0.02 0.01 0.01 0.02 0.02 0.02 0.02 0.01 0.02
0.03 0.02 0.02 0.01 0.01 0.01 0.01 0.01 0.02 0.02 0.02 0.02 0.02 0.02 0.02 0.02 0.02 0.02 0.02 0.01 0.01 0.01 0.01 0.01 0.02 0.02 0.02 0.02 0.02 0.02 0.02 0.02 0.01 0.01 0.01 0.01 0.02 0.02 0.01 0.02 0.02 0.02 0.02 0.01
MSLP
1004.47 1004.75 1004.97 1005.15 1005.36 1005.64 1006.01 1006.48 1007.05 1007.68 1008.36 1009.03 1009.67 1010.25 1010.76 1011.20 1011.56 1011.84 1012.07 1012.24 1012.36 1012.43 1012.46 1012.45 1012.40 1012.32 1012.20 1012.05 1011.87 1011.66 1011.43 1011.17 1010.91 1010.64 1010.39 1010.16 1009.97 1009.83 1009.74 1009.70 1009.70 1009.73 1009.76 1009.77
1004.66 1004.91 1005.04 1005.11 1005.18 1005.33 1005.61 1006.03 1006.60 1007.30 1008.09 1008.91 1009.72 1010.45 1011.09 1011.60 1012.00 1012.28 1012.46 1012.58 1012.64 1012.69 1012.71 1012.74 1012.75 1012.75 1012.73 1012.66 1012.56 1012.40 1012.19 1011.93 1011.65 1011.36 1011.07 1010.81 1010.59 1010.43 1010.32 1010.26 1010.24 1010.23 1010.22 1010.19
1004.95 1005.14 1005.19 1005.15 1005.12 1005.17 1005.37 1005.76 1006.34 1007.11 1008.00 1008.95 1009.89 1010.76 1011.50 1012.09 1012.51 1012.78 1012.93 1013.00 1013.02 1013.04 1013.06 1013.11 1013.17 1013.24 1013.29 1013.30 1013.25 1013.13 1012.94 1012.68 1012.38 1012.06 1011.74 1011.45 1011.21 1011.02 1010.89 1010.81 1010.76 1010.71 1010.66 1010.59
1005.24 1005.37 1005.34 1005.22 1005.10 1005.08 1005.23 1005.60 1006.21 1007.03 1008.00 1009.06 1010.12 1011.09 1011.92 1012.56 1013.01 1013.28 1013.42 1013.46 1013.45 1013.45 1013.48 1013.55 1013.65 1013.77 1013.87 1013.93 1013.92 1013.82 1013.63 1013.37 1013.05 1012.71 1012.37 1012.06 1011.80 1011.60 1011.46 1011.36 1011.28 1011.20 1011.12 1011.00
1005.41 1005.48 1005.39 1005.21 1005.04 1004.98 1005.11 1005.48 1006.12 1006.98 1008.02 1009.16 1010.30 1011.35 1012.24 1012.94 1013.42 1013.71 1013.85 1013.88 1013.87 1013.87 1013.91 1013.99 1014.12 1014.27 1014.40 1014.49 1014.50 1014.41 1014.23 1013.96 1013.64 1013.28 1012.94 1012.63 1012.37 1012.17 1012.02 1011.91 1011.82 1011.72 1011.61 1011.47
1005.36 1005.38 1005.25 1005.05 1004.87 1004.81 1004.95 1005.34 1006.00 1006.90 1007.99 1009.18 1010.37 1011.47 1012.42 1013.16 1013.68 1014.00 1014.16 1014.22 1014.22 1014.24 1014.29 1014.39 1014.53 1014.70 1014.84 1014.94 1014.95 1014.87 1014.69 1014.43 1014.11 1013.77 1013.44 1013.15 1012.91 1012.73 1012.59 1012.49 1012.40 1012.29 1012.17 1012.00
1005.02 1005.02 1004.90 1004.72 1004.57 1004.55 1004.73 1005.16 1005.84 1006.77 1007.88 1009.09 1010.31 1011.44 1012.42 1013.19 1013.76 1014.12 1014.32 1014.42 1014.47 1014.51 1014.58 1014.70 1014.85 1015.02 1015.16 1015.25 1015.27 1015.18 1015.01 1014.77 1014.47 1014.16 1013.87 1013.62 1013.42 1013.28 1013.18 1013.09 1013.02 1012.92 1012.79 1012.62
1004.42 1004.43 1004.35 1004.24 1004.17 1004.23 1004.48 1004.96 1005.68 1006.63 1007.74 1008.94 1010.16 1011.29 1012.28 1013.08 1013.68 1014.09 1014.35 1014.50 1014.59 1014.68 1014.78 1014.92 1015.07 1015.23 1015.37 1015.45 1015.46 1015.38 1015.22 1015.00 1014.75 1014.48 1014.25 1014.05 1013.91 1013.81 1013.75 1013.70 1013.65 1013.57 1013.44 1013.28
1003.63 1003.70 1003.71 1003.71 1003.76 1003.93 1004.27 1004.82 1005.57 1006.53 1007.63 1008.80 1009.98 1011.09 1012.07 1012.89 1013.51 1013.97 1014.28 1014.50 1014.65 1014.78 1014.91 1015.06 1015.22 1015.37 1015.49 1015.56 1015.56 1015.48 1015.34 1015.16 1014.95 1014.75 1014.57 1014.44 1014.35 1014.31 1014.29 1014.28 1014.25 1014.19 1014.08 1013.92
1002.80 1002.96 1003.10 1003.25 1003.44 1003.74 1004.19 1004.81 1005.60 1006.55 1007.62 1008.75 1009.87 1010.94 1011.89 1012.69 1013.34 1013.83 1014.20 1014.47 1014.67 1014.85 1015.01 1015.17 1015.33 1015.47 1015.57 1015.62 1015.61 1015.54 1015.42 1015.27 1015.11 1014.96 1014.84 1014.76 1014.73 1014.73 1014.75 1014.76 1014.76 1014.72 1014.62 1014.48
1002.10 1002.38 1002.66 1002.96 1003.32 1003.75 1004.30 1004.99 1005.80 1006.74 1007.76 1008.82 1009.88 1010.88 1011.79 1012.57 1013.22 1013.74 1014.15 1014.46 1014.72 1014.93 1015.12 1015.29 1015.44 1015.57 1015.65 1015.68 1015.66 1015.59 1015.49 1015.36 1015.23 1015.12 1015.04 1015.01 1015.01 1015.04 1015.08 1015.11 1015.12 1015.09 1015.01 1014.88
1001.68 1002.08 1002.49 1002.94 1003.43 1003.98 1004.62 1005.35 1006.18 1007.08 1008.05 1009.04 1010.02 1010.95 1011.80 1012.55 1013.20 1013.73 1014.17 1014.52 1014.81 1015.06 1015.26 1015.44 1015.58 1015.68 1015.74 1015.76 1015.72 1015.65 1015.54 1015.43 1015.33 1015.24 1015.19 1015.17 1015.18 1015.22 1015.26 1015.29 1015.30 1015.27 1015.20 1015.08
1001.61 1002.09 1002.61 1003.17 1003.76 1004.40 1005.09 1005.84 1006.65 1007.52 1008.42 1009.33 1010.24 1011.10 1011.90 1012.62 1013.25 1013.79 1014.25 1014.63 1014.95 1015.22 1015.44 1015.61 1015.74 1015.82 1015.85 1015.84 1015.79 1015.70 1015.60 1015.49 1015.39 1015.31 1015.26 1015.24 1015.25 1015.27 1015.30 1015.31 1015.31 1015.27 1015.20 1015.08
1001.89 1002.41 1002.98 1003.59 1004.23 1004.90 1005.61 1006.36 1007.14 1007.95 1008.79 1009.63 1010.46 1011.26 1012.01 1012.71 1013.33 1013.88 1014.36 1014.77 1015.11 1015.38 1015.60 1015.77 1015.88 1015.94 1015.95 1015.91 1015.84 1015.74 1015.63 1015.52 1015.42 1015.34 1015.28 1015.25 1015.24 1015.23 1015.24 1015.23 1015.20 1015.15 1015.07 1014.96
1002.43 1002.95 1003.51 1004.10 1004.73 1005.39 1006.08 1006.79 1007.52 1008.28 1009.06 1009.84 1010.61 1011.37 1012.09 1012.77 1013.39 1013.95 1014.45 1014.87 1015.23 1015.51 1015.73 1015.88 1015.98 1016.01 1016.00 1015.94 1015.86 1015.75 1015.63 1015.52 1015.42 1015.33 1015.27 1015.22 1015.19 1015.16 1015.13 1015.09 1015.04 1014.97 1014.89 1014.78
1003.12 1003.57 1004.06 1004.60 1005.17 1005.77 1006.39 1007.05 1007.73 1008.43 1009.16 1009.89 1010.63 1011.36 1012.07 1012.75 1013.38 1013.96 1014.47 1014.91 1015.28 1015.56 1015.78 1015.92 1016.00 1016.01 1015.98 1015.91 1015.82 1015.71 1015.59 1015.49 1015.39 1015.31 1015.24 1015.19 1015.14 1015.10 1015.05 1014.99 1014.92 1014.83 1014.74 1014.62
1003.82 1004.16 1004.55 1004.99 1005.46 1005.97 1006.52 1007.11 1007.73 1008.38 1009.07 1009.78 1010.50 1011.23 1011.95 1012.64 1013.28 1013.88 1014.41 1014.86 1015.23 1015.52 1015.73 1015.86 1015.92 1015.93 1015.89 1015.81 1015.72 1015.61 1015.51 1015.42 1015.35 1015.28 1015.23 1015.18 1015.14 1015.09 1015.03 1014.96 1014.88 1014.78 1014.68 1014.56
1004.41 1004.64 1004.90 1005.22 1005.58 1006.00 1006.47 1006.98 1007.55 1008.17 1008.83 1009.53 1010.25 1010.99 1011.72 1012.43 1013.10 1013.71 1014.26 1014.73 1015.11 1015.39 1015.60 1015.72 1015.77 1015.77 1015.72 1015.65 1015.56 1015.48 1015.40 1015.34 1015.29 1015.26 1015.24 1015.22 1015.19 1015.15 1015.10 1015.03 1014.95 1014.85 1014.74 1014.61
1004.85 1004.96 1005.11 1005.31 1005.57 1005.89 1006.28 1006.74 1007.26 1007.85 1008.50 1009.19 1009.92 1010.67 1011.42 1012.16 1012.85 1013.48 1014.05 1014.52 1014.90 1015.19 1015.39 1015.51 1015.56 1015.56 1015.51 1015.45 1015.38 1015.32 1015.28 1015.25 1015.24 1015.24 1015.26 1015.27 1015.28 1015.27 1015.23 1015.18 1015.10 1015.01 1014.89 1014.76
1005.12 1005.14 1005.20 1005.31 1005.48 1005.73 1006.06 1006.46 1006.95 1007.52 1008.15 1008.85 1009.58 1010.34 1011.11 1011.86 1012.56 1013.21 1013.79 1014.27 1014.66 1014.95 1015.15 1015.28 1015.33 1015.33 1015.30 1015.25 1015.20 1015.17 1015.15 1015.16 1015.18 1015.23 1015.28 1015.33 1015.37 1015.39 1015.38 1015.35 1015.29 1015.21 1015.10 1014.97
1005.29 1005.24 1005.23 1005.27 1005.39 1005.58 1005.86 1006.23 1006.69 1007.23 1007.85 1008.54 1009.27 1010.03 1010.80 1011.55 1012.26 1012.92 1013.50 1013.99 1014.39 1014.69 1014.91 1015.04 1015.11 1015.12 1015.11 1015.08 1015.05 1015.03 1015.04 1015.07 1015.12 1015.19 1015.27 1015.35 1015.43 1015.48 1015.50 1015.50 1015.46 1015.40 1015.30 1015.18
1005.39 1005.31 1005.26 1005.27 1005.34 1005.50 1005.74 1006.08 1006.50 1007.02 1007.61 1008.27 1008.99 1009.73 1010.48 1011.22 1011.93 1012.59 1013.18 1013.68 1014.10 1014.42 1014.66 1014.82 1014.91 1014.95 1014.96 1014.95 1014.94 1014.94 1014.95 1014.99 1015.06 1015.14 1015.24 1015.34 1015.43 1015.51 1015.56 1015.59 1015.58 1015.54 1015.47 1015.37
1005.50 1005.40 1005.33 1005.32 1005.37 1005.50 1005.71 1006.01 1006.40 1006.88 1007.44 1008.06 1008.73 1009.44 1010.16 1010.88 1011.58 1012.23 1012.82 1013.34 1013.78 1014.14 1014.41 1014.61 1014.74 1014.82 1014.86 1014.87 1014.87 1014.88 1014.90 1014.94 1015.00 1015.08 1015.17 1015.28 1015.38 1015.48 1015.56 1015.62 1015.65 1015.65 1015.62 1015.55
1005.62 1005.53 1005.46 1005.43 1005.47 1005.57 1005.76 1006.02 1006.37 1006.79 1007.29 1007.86 1008.48 1009.14 1009.82 1010.50 1011.18 1011.82 1012.43 1012.97 1013.44 1013.84 1014.17 1014.42 1014.60 1014.72 1014.79 1014.83 1014.85 1014.86 1014.88 1014.91 1014.95 1015.02 1015.10 1015.20 1015.31 1015.42 1015.53 1015.62 1015.69 1015.74 1015.76 1015.75
1005.79 1005.70 1005.63 1005.60 1005.63 1005.71 1005.86 1006.08 1006.37 1006.74 1007.17 1007.67 1008.22 1008.82 1009.45 1010.10 1010.75 1011.39 1012.00 1012.57 1013.08 1013.54 1013.92 1014.22 1014.46 1014.64 1014.76 1014.83 1014.87 1014.89 1014.90 1014.91 1014.94 1014.99 1015.06 1015.15 1015.27 1015.39 1015.52 1015.65 1015.77 1015.88 1015.95 1016.00
1005.99 1005.91 1005.85 1005.82 1005.83 1005.89 1006.00 1006.18 1006.41 1006.71 1007.08 1007.50 1007.99 1008.52 1009.10 1009.71 1010.33 1010.96 1011.58 1012.18 1012.73 1013.23 1013.67 1014.04 1014.34 1014.57 1014.73 1014.84 1014.91 1014.94 1014.95 1014.96 1014.98 1015.02 1015.08 1015.17 1015.29 1015.44 1015.60 1015.77 1015.94 1016.10 1016.24 1016.36
1006.24 1006.17 1006.12 1006.09 1006.09 1006.12 1006.20 1006.32 1006.50 1006.74 1007.03 1007.39 1007.81 1008.28 1008.80 1009.37 1009.97 1010.59 1011.22 1011.83 1012.41 1012.95 1013.44 1013.87 1014.22 1014.50 1014.71 1014.86 1014.95 1015.01 1015.04 1015.06 1015.08 1015.12 1015.19 1015.29 1015.43 1015.59 1015.79 1016.00 1016.22 1016.44 1016.64 1016.81
Thickness
5825 5830 5830 5825 5826 5831 5826 5821 5812 5815 5815 5818 5822 5821 5821 5822 5818 5813 5809 5806 5802 5796 5790 5787 5782 5778 5774 5769 5766 5763 5757 5752 5747 5743 5740 5735 5732 5729 5726 5723 5721 5718 5715 5712
5811 5822 5823 5818 5824 5827 5826 5827 5823 5819 5816 5831 5830 5825 5817 5816 5813 5805 5802 5799 5796 5793 5789 5784 5779 5775 5771 5766 5763 5759 5753 5748 5744 5740 5735 5731 5727 5724 5720 5717 5715 5712 5709 5706
5795 5811 5809 5800 5820 5822 5824 5826 5821 5810 5815 5825 5817 5812 5807 5807 5808 5803 5799 5795 5791 5789 5786 5781 5778 5774 5768 5764 5759 5754 5749 5744 5741 5736 5732 5727 5724 5720 5716 5713 5709 5706 5704 5701
5791 5790 5770 5807 5838 5834 5825 5822 5824 5818 5820 5819 5815 5811 5810 5809 5805 5801 5797 5792 5789 5787 5784 5781 5777 5772 5766 5761 5756 5750 5745 5740 5737 5733 5728 5724 5720 5716 5712 5709 5705 5702 5699 5696
5781 5774 5781 5805 5824 5826 5813 5805 5818 5813 5816 5817 5814 5806 5800 5805 5805 5800 5796 5792 5788 5786 5783 5778 5773 5769 5762 5756 5751 5746 5741 5736 5733 5728 5723 5719 5715 5711 5708 5704 5700 5697 5695 5692
5775 5764 5764 5793 5822 5833 5816 5791 5812 5812 5806 5807 5803 5784 5781 5797 5798 5796 5794 5789 5785 5783 5778 5772 5768 5764 5756 5750 5745 5740 5737 5733 5729 5724 5719 5715 5711 5708 5704 5700 5696 5693 5690 5687
5768 5764 5776 5803 5821 5819 5781 5777 5802 5804 5800 5798 5791 5788 5790 5795 5791 5788 5787 5784 5781 5776 5770 5766 5763 5757 5749 5744 5739 5737 5734 5730 5725 5720 5716 5712 5708 5703 5699 5695 5691 5688 5685 5682
5763 5756 5764 5803 5806 5790 5783 5797 5798 5796 5795 5791 5790 5790 5789 5787 5783 5779 5778 5775 5773 5767 5762 5760 5757 5750 5743 5737 5735 5733 5728 5724 5719 5714 5712 5709 5702 5697 5693 5689 5685 5682 5678 5675
5767 5765 5784 5795 5793 5794 5796 5790 5790 5789 5789 5787 5782 5779 5780 5777 5773 5772 5770 5766 5764 5760 5755 5752 5749 5744 5736 5733 5731 5726 5721 5716 5713 5710 5706 5702 5697 5693 5688 5684 5681 5678 5675 5671
5765 5768 5778 5784 5786 5788 5788 5785 5786 5785 5784 5781 5775 5774 5771 5768 5767 5764 5761 5756 5755 5752 5746 5742 5741 5737 5733 5729 5725 5719 5714 5710 5708 5704 5700 5697 5693 5689 5685 5681 5678 5675 5671 5668
5754 5762 5768 5770 5773 5775 5777 5779 5779 5778 5775 5772 5770 5767 5764 5761 5758 5756 5754 5751 5748 5744 5739 5736 5733 5730 5726 5723 5717 5712 5707 5704 5702 5699 5696 5692 5688 5684 5681 5677 5673 5668 5665 5663
5743 5753 5754 5754 5763 5767 5764 5764 5765 5765 5763 5764 5762 5758 5755 5752 5750 5747 5745 5742 5739 5736 5732 5729 5726 5722 5719 5716 5711 5705 5701 5698 5696 5694 5691 5688 5684 5680 5675 5671 5667 5663 5659 5655
5750 5754 5754 5753 5756 5759 5756 5756 5757 5755 5754 5752 5751 5750 5748 5744 5741 5739 5736 5734 5730 5727 5724 5722 5718 5714 5712 5709 5705 5699 5695 5693 5691 5690 5687 5683 5680 5676 5670 5663 5659 5656 5653 5649
5745 5744 5738 5740 5742 5746 5748 5749 5749 5747 5746 5745 5743 5741 5738 5734 5732 5728 5726 5725 5724 5721 5718 5714 5710 5707 5705 5703 5698 5694 5691 5689 5686 5684 5683 5680 5676 5673 5668 5663 5657 5655 5648 5643
5733 5733 5730 5732 5733 5735 5737 5737 5734 5732 5732 5731 5731 5729 5726 5723 5719 5718 5719 5718 5716 5712 5709 5706 5702 5700 5699 5696 5692 5688 5686 5684 5681 5679 5677 5675 5673 5669 5665 5660 5656 5652 5647 5640
5720 5724 5723 5721 5721 5722 5724 5724 5722 5721 5721 5719 5718 5717 5716 5714 5712 5711 5710 5709 5705 5702 5700 5698 5695 5694 5692 5689 5686 5683 5680 5677 5674 5673 5671 5668 5666 5662 5659 5655 5651 5647 5642 5637
5704 5705 5707 5708 5710 5712 5714 5714 5713 5712 5712 5710 5709 5709 5707 5705 5702 5701 5701 5700 5698 5696 5695 5692 5689 5688 5685 5683 5680 5678 5676 5673 5668 5666 5663 5661 5658 5655 5653 5649 5644 5640 5636 5632
5700 5701 5702 5703 5703 5704 5704 5706 5705 5704 5702 5703 5702 5700 5697 5694 5692 5691 5692 5691 5690 5688 5687 5686 5684 5681 5679 5677 5674 5672 5670 5667 5663 5659 5657 5653 5650 5648 5645 5642 5638 5634 5630 5627
5692 5692 5693 5694 5695 5695 5695 5695 5695 5695 5695 5694 5692 5689 5688 5687 5685 5684 5684 5682 5680 5677 5678 5679 5676 5675 5673 5670 5667 5665 5663 5660 5656 5653 5650 5645 5642 5640 5637 5635 5632 5629 5627 5622
5681 5682 5684 5685 5686 5686 5686 5686 5685 5685 5685 5684 5682 5680 5678 5678 5678 5677 5675 5673 5673 5673 5673 5671 5670 5668 5667 5664 5659 5658 5656 5653 5650 5646 5642 5639 5636 5633 5632 5629 5627 5623 5620 5617
5672 5673 5673 5673 5675 5676 5677 5677 5676 5674 5674 5674 5671 5669 5668 5669 5669 5668 5665 5664 5667 5667 5666 5663 5662 5661 5659 5655 5652 5652 5649 5647 5644 5640 5635 5632 5629 5627 5625 5623 5619 5616 5614 5611
5663 5663 5663 5665 5665 5666 5667 5668 5668 5666 5665 5664 5663 5662 5661 5661 5661 5661 5660 5659 5660 5658 5658 5658 5656 5652 5650 5647 5647 5646 5644 5641 5638 5634 5631 5627 5624 5622 5619 5616 5613 5610 5607 5605
5653 5654 5655 5656 5657 5657 5658 5659 5659 5658 5656 5655 5655 5654 5653 5653 5654 5652 5651 5653 5654 5650 5650 5650 5647 5643 5640 5641 5641 5640 5638 5634 5631 5628 5625 5622 5619 5616 5613 5610 5606 5604 5601 5599
5644 5646 5648 5649 5650 5648 5648 5650 5652 5651 5650 5649 5649 5649 5648 5647 5647 5648 5647 5644 5643 5641 5642 5639 5636 5635 5631 5633 5633 5633 5631 5628 5625 5622 5619 5617 5614 5610 5607 5603 5599 5597 5594 5592
5637 5639 5640 5640 5640 5642 5643 5644 5644 5644 5644 5644 5645 5644 5644 5643 5640 5640 5639 5637 5634 5633 5633 5631 5628 5627 5627 5627 5626 5625 5623 5620 5618 5615 5613 5610 5608 5604 5600 5597 5594 5591 5588 5585
5630 5632 5634 5635 5638 5638 5639 5639 5637 5637 5637 5636 5637 5637 5637 5636 5634 5633 5631 5630 5628 5625 5625 5624 5622 5620 5621 5620 5619 5617 5615 5613 5610 5608 5606 5604 5601 5598 5594 5591 5588 5585 5582 5578
5625 5627 5627 5629 5631 5632 5633 5632 5631 5630 5631 5630 5629 5630 5629 5628 5626 5625 5623 5622 5621 5619 5618 5617 5615 5614 5613 5612 5611 5609 5607 5604 5603 5600 5598 5595 5593 5590 5587 5584 5581 5578 5575 5573